Location: Doverdale
(52.2833°N, 2.2000°W)
Time: 13:45:22
(UTC+00:00)

SL-4 R/B - Pass Details

Date: 29 October 2020
Orbit: 427 x 665 km, 51.6° (Epoch: 28 November)

Event Time Altitude Azimuth Distance (km) Brightness Sun altitude
Rises 19:06:19 0° 282° (WNW) 2,454 6.8 -22.1°
Reaches altitude 10° 19:08:27 10° 275° (W) 1,607 5.5 -22.5°
Enters shadow 19:11:47 42° 208° (SSW) 695 2.6 -23.0°
